Tracking 35331 objects as of 15-Sep-2026
HD Live streaming from Space Station
objects crossing your sky now

COSMOS 57 DEB


COSMOS 57 DEB is no longer on orbit


NORAD ID: 1239
Int'l Code: 1965-012ER
Launch date: February 22, 1965
Source: Commonwealth of Independent States (former USSR) (CIS)
Launch site: TYURATAM MISSILE AND SPACE COMPLEX (TTMTR)
Decay date: 1965-03-29

Note: This is SATELLITE DEBRIS
Your satellite tracking list
Your tracking list is empty




NASA's NSSDC Master Catalog

Two Line Element Set (TLE):
1 01239U 65012 ER 65069.87999319  .00457137 +32677-3 +00000-0 0  9995
2 01239 064.6797 242.6166 0322191 081.2385 282.3964 15.57489805002567
Source of the keplerian elements: AFSPC